Home > Time Zones > World Clock > Weather > Serbia > Niš > Past weeks

Flag for Serbia Weather past 2 weeks in Niš, Serbia

Now
73 °F

Scattered clouds.


Feels Like: 77 °F
Forecast: 57 / 83 °F
Wind: 2 mph from North

Location: Nis Airport

Current Time: Aug 29, 2014 at 8:41:43 PM

Latest Report: Aug 29, 2014 at 8:00 PM


Visibility: N/A

Pressure: 30.04 "Hg

Humidity: 53%

Dew point: 55 °F

Location of NišLocation

Historic Weather in Niš — Graph

°F

Niš temperature yesterday

Maximum temperature yesterday: 72 °F (at 3:00 PM)
Minimum temperature yesterday: 59 °F (at 7:00 AM)
Average temperature yesterday: 65 °F

Past Weeks' High & Low Weather Summary

 TemperatureHumidityPressure
High91 °F (Aug 27, 4:30 PM)100% (Aug 21, 4:00 PM)30.15 "Hg (Aug 21, 4:00 PM)
Low46 °F (Aug 29, 5:30 AM)29% (Aug 26, 5:00 PM)29.74 "Hg (Aug 14, 7:00 PM)
Average70 °F70%29.98 "Hg
* Reported Aug 14 7:00 PM — Aug 29 7:30 PM, Niš, Weather by CustomWeather, © 2014

Note: Actual official high and low records may vary slightly from our data, if they occured in-between our weather recording intervals... More about our weather records

Advertising

Niš weather history for previous 24 hours

 ConditionsComfort  
Time TempWeatherWind HumidityBarometerVisibility
7:30 PM
Aug 29
73 °FScattered clouds.7 mph57%30.04 "HgN/A
7:00 PM75 °FSunny.5 mph54%30.04 "Hg10 mi
6:30 PM77 °FSunny.7 mph51%30.04 "Hg10 mi
6:00 PM79 °FSunny.8 mph48%30.04 "Hg10 mi
5:30 PM81 °FPassing clouds.5 mph45%30.04 "HgN/A
5:00 PM81 °FPassing clouds.3 mph45%30.04 "HgN/A
4:30 PM81 °FPassing clouds.3 mph45%30.04 "HgN/A
4:00 PM81 °FSunny.2 mph48%30.04 "Hg10 mi
3:30 PM81 °FSunny.2 mph45%30.07 "Hg10 mi
3:00 PM79 °FPassing clouds.3 mph48%30.07 "HgN/A
2:30 PM79 °FSunny.3 mph48%30.07 "Hg10 mi
2:00 PM77 °FPassing clouds.5 mph51%30.09 "HgN/A
1:30 PM75 °FPassing clouds.3 mph50%30.09 "HgN/A
1:00 PM75 °FPassing clouds.6 mph50%30.09 "HgN/A
12:30 PM73 °FSunny.1 mph53%30.12 "Hg10 mi
12:00 PM72 °FSunny.2 mph53%30.12 "Hg10 mi
11:30 AM70 °FPassing clouds.3 mph57%30.12 "HgN/A
11:00 AM68 °FSunny.5 mph56%30.15 "Hg10 mi
10:30 AM66 °FPassing clouds.6 mph56%30.15 "HgN/A
10:00 AM64 °FPassing clouds.5 mph64%30.15 "HgN/A
9:30 AM61 °FSunny.1 mph72%30.15 "Hg10 mi
9:00 AM61 °FSunny.1 mph72%30.15 "Hg10 mi
8:30 AM57 °FSunny.2 mph82%30.15 "Hg10 mi
8:00 AM54 °FSunny.2 mph88%30.15 "Hg10 mi
7:30 AM52 °FSunny.No wind94%30.15 "Hg10 mi
7:00 AM48 °FSunny.1 mph94%30.15 "Hg10 mi
6:30 AM48 °FClear.No wind100%30.15 "Hg10 mi
6:00 AM46 °FClear.No wind100%30.15 "Hg10 mi
5:30 AM46 °FClear.No wind100%30.15 "Hg10 mi
5:00 AM48 °FClear.1 mph94%30.12 "Hg10 mi
4:30 AM48 °FClear.1 mph100%30.12 "Hg10 mi
4:00 AM50 °FClear.No wind88%30.12 "Hg10 mi
3:30 AM50 °FClear.1 mph94%30.12 "Hg10 mi
3:00 AM50 °FClear.1 mph100%30.12 "Hg10 mi
2:30 AM50 °FClear.2 mph94%30.12 "Hg10 mi
2:00 AM52 °FClear.No wind94%30.12 "Hg10 mi
1:30 AM54 °FClear.1 mph88%30.12 "Hg10 mi
1:00 AM55 °FClear.3 mph82%30.12 "Hg10 mi
12:30 AM54 °FClear.6 mph88%30.12 "Hg10 mi
12:00 AM57 °FClear.3 mph77%30.12 "Hg10 mi
11:30 PM
Aug 28
59 °FClear.1 mph68%30.12 "Hg10 mi
11:00 PM59 °FClear.No wind72%30.12 "Hg10 mi
10:30 PM61 °FClear.2 mph68%30.12 "Hg10 mi
10:00 PM61 °FPassing clouds.8 mph68%30.12 "HgN/A
9:30 PM63 °FPassing clouds.9 mph64%30.12 "HgN/A
9:00 PM63 °FPassing clouds.12 mph64%30.12 "HgN/A
8:30 PM64 °FPassing clouds.12 mph56%30.09 "HgN/A
8:00 PM64 °FPassing clouds.10 mph56%30.09 "HgN/A
Weather by CustomWeather, © 2014

See weather overviewHow to use our weather pages